Location: El Gallo
(32.4380°N, 116.9347°W)
Time: 20:35:50
(UTC+00:00)

Meteor 1-31 Rocket - Pass Details

Date: 01 October 2022
Orbit: 515 x 539 km, 97.7° (Epoch: 01 December)

Event Time Altitude Azimuth Distance (km) Brightness Sun altitude
Rises 13:03:48 0° 17° (NNE) 2,662 6.6 -8.9°
Reaches altitude 10° 13:05:57 10° 22° (NNE) 1,773 5.7 -8.4°
Maximum altitude 13:09:42 54° 100° (E) 649 3.7 -7.6°
Drops below altitude 10° 13:13:27 10° 178° (S) 1,776 5.4 -6.8°
Sets 13:15:36 0° 183° (S) 2,666 6.3 -6.4°
